Year,Month,Day,Hour,Minute,Value (Times are PST for windspeed in km/hr)
2012,01,23,00,00,4.40
2012,01,23,00,01,2.30
2012,01,23,00,02,2.70
2012,01,23,00,03,5.50
2012,01,23,00,04,6.10
2012,01,23,00,05,3.30
2012,01,23,00,06,0.30
2012,01,23,00,07,0.10
2012,01,23,00,08,0.00
2012,01,23,00,09,0.00
2012,01,23,00,10,0.00
2012,01,23,00,11,0.00
2012,01,23,00,12,0.00
2012,01,23,00,13,0.50
2012,01,23,00,14,2.50
2012,01,23,00,15,0.10
2012,01,23,00,16,0.00
2012,01,23,00,17,0.90
2012,01,23,00,18,3.80
2012,01,23,00,19,1.10
2012,01,23,00,20,3.90
2012,01,23,00,21,3.50
2012,01,23,00,22,7.20
2012,01,23,00,23,7.00
2012,01,23,00,24,7.70
2012,01,23,00,25,8.30
2012,01,23,00,26,7.30
2012,01,23,00,27,7.30
2012,01,23,00,28,8.40
2012,01,23,00,29,10.10
2012,01,23,00,30,10.50
2012,01,23,00,31,9.20
2012,01,23,00,32,9.30
2012,01,23,00,33,6.80
2012,01,23,00,34,10.20
2012,01,23,00,35,8.80
2012,01,23,00,36,11.60
2012,01,23,00,37,11.00
2012,01,23,00,38,11.80
2012,01,23,00,39,9.90
2012,01,23,00,40,8.70
2012,01,23,00,41,11.80
2012,01,23,00,42,17.40
2012,01,23,00,43,14.20
2012,01,23,00,44,9.70
2012,01,23,00,45,3.20
2012,01,23,00,46,9.00
2012,01,23,00,47,14.20
2012,01,23,00,48,13.80
2012,01,23,00,49,10.50
2012,01,23,00,50,13.10
2012,01,23,00,51,8.70
2012,01,23,00,52,9.30
2012,01,23,00,53,15.00
2012,01,23,00,54,12.80
2012,01,23,00,55,14.20
2012,01,23,00,56,11.80
2012,01,23,00,57,14.40
2012,01,23,00,58,11.50
2012,01,23,00,59,10.10
2012,01,23,01,00,17.40
2012,01,23,01,01,17.10
2012,01,23,01,02,9.00
2012,01,23,01,03,11.50
2012,01,23,01,04,15.50
2012,01,23,01,05,19.20
2012,01,23,01,06,21.40
2012,01,23,01,07,19.10
2012,01,23,01,08,17.10
2012,01,23,01,09,15.00
2012,01,23,01,10,18.60
2012,01,23,01,11,16.40
2012,01,23,01,12,12.50
2012,01,23,01,13,15.60
2012,01,23,01,14,19.50
2012,01,23,01,15,16.80
2012,01,23,01,16,12.90
2012,01,23,01,17,16.10
2012,01,23,01,18,15.10
2012,01,23,01,19,17.50
2012,01,23,01,20,13.40
2012,01,23,01,21,16.60
2012,01,23,01,22,11.10
2012,01,23,01,23,8.40
2012,01,23,01,24,11.30
2012,01,23,01,25,8.90
2012,01,23,01,26,7.60
2012,01,23,01,27,9.70
2012,01,23,01,28,10.20
2012,01,23,01,29,14.60
2012,01,23,01,30,14.20
2012,01,23,01,31,11.20
2012,01,23,01,32,10.50
2012,01,23,01,33,11.70
2012,01,23,01,34,8.60
2012,01,23,01,35,11.70
2012,01,23,01,36,10.60
2012,01,23,01,37,9.20
2012,01,23,01,38,10.50
2012,01,23,01,39,8.60
2012,01,23,01,40,7.60
2012,01,23,01,41,7.70
2012,01,23,01,42,9.10
2012,01,23,01,43,9.60
2012,01,23,01,44,7.90
2012,01,23,01,45,7.10
2012,01,23,01,46,6.50
2012,01,23,01,47,7.80
2012,01,23,01,48,7.10
2012,01,23,01,49,7.00
2012,01,23,01,50,5.40
2012,01,23,01,51,6.40
2012,01,23,01,52,6.00
2012,01,23,01,53,6.50
2012,01,23,01,54,6.30
2012,01,23,01,55,5.80
2012,01,23,01,56,9.30
2012,01,23,01,57,10.20
2012,01,23,01,58,9.10
2012,01,23,01,59,7.60
2012,01,23,02,00,7.90
2012,01,23,02,01,8.50
2012,01,23,02,02,12.60
2012,01,23,02,03,13.00
2012,01,23,02,04,2.80
2012,01,23,02,05,5.00
2012,01,23,02,06,2.40
2012,01,23,02,07,4.30
2012,01,23,02,08,1.70
2012,01,23,02,09,4.30
2012,01,23,02,10,4.30
2012,01,23,02,11,3.00
2012,01,23,02,12,7.80
2012,01,23,02,13,12.10
2012,01,23,02,14,19.10
2012,01,23,02,15,15.90
2012,01,23,02,16,18.70
2012,01,23,02,17,18.70
2012,01,23,02,18,22.60
2012,01,23,02,19,21.30
2012,01,23,02,20,21.30
2012,01,23,02,21,16.90
2012,01,23,02,22,17.00
2012,01,23,02,23,15.30
2012,01,23,02,24,9.50
2012,01,23,02,25,12.00
2012,01,23,02,26,9.00
2012,01,23,02,27,7.20
2012,01,23,02,28,7.90
2012,01,23,02,29,9.40
2012,01,23,02,30,10.40
2012,01,23,02,31,8.40
2012,01,23,02,32,8.30
2012,01,23,02,33,13.60
2012,01,23,02,34,7.50
2012,01,23,02,35,9.80
2012,01,23,02,36,9.40
2012,01,23,02,37,11.00
2012,01,23,02,38,10.90
2012,01,23,02,39,11.40
2012,01,23,02,40,9.10
2012,01,23,02,41,6.00
2012,01,23,02,42,8.10
2012,01,23,02,43,10.50
2012,01,23,02,44,8.90
2012,01,23,02,45,7.60
2012,01,23,02,46,6.50
2012,01,23,02,47,5.60
2012,01,23,02,48,5.30
2012,01,23,02,49,2.50
2012,01,23,02,50,6.10
2012,01,23,02,51,5.40
2012,01,23,02,52,2.50
2012,01,23,02,53,0.60
2012,01,23,02,54,1.20
2012,01,23,02,55,0.10
2012,01,23,02,56,1.60
2012,01,23,02,57,7.90
2012,01,23,02,58,3.40
2012,01,23,02,59,2.20
2012,01,23,03,00,0.00
2012,01,23,03,01,0.00
2012,01,23,03,02,0.00
2012,01,23,03,03,0.00
2012,01,23,03,04,0.00
2012,01,23,03,05,0.00
2012,01,23,03,06,0.00
2012,01,23,03,07,0.00
2012,01,23,03,08,0.00
2012,01,23,03,09,0.10
2012,01,23,03,10,0.00
2012,01,23,03,11,0.00
2012,01,23,03,12,0.00
2012,01,23,03,13,0.00
2012,01,23,03,14,0.10
2012,01,23,03,15,0.00
2012,01,23,03,16,0.00
2012,01,23,03,17,0.00
2012,01,23,03,18,0.00
2012,01,23,03,19,0.00
2012,01,23,03,20,0.00
2012,01,23,03,21,0.00
2012,01,23,03,22,0.00
2012,01,23,03,23,0.00
2012,01,23,03,24,0.00
2012,01,23,03,25,0.00
2012,01,23,03,26,0.00
2012,01,23,03,27,0.00
2012,01,23,03,28,0.00
2012,01,23,03,29,0.00
2012,01,23,03,30,0.00
2012,01,23,03,31,0.00
2012,01,23,03,32,0.00
2012,01,23,03,33,0.00
2012,01,23,03,34,0.00
2012,01,23,03,35,0.00
2012,01,23,03,36,0.00
2012,01,23,03,37,0.00
2012,01,23,03,38,0.00
2012,01,23,03,39,0.10
2012,01,23,03,40,0.00
2012,01,23,03,41,1.00
2012,01,23,03,42,0.10
2012,01,23,03,43,0.00
2012,01,23,03,44,0.60
2012,01,23,03,45,4.40
2012,01,23,03,46,2.60
2012,01,23,03,47,2.70
2012,01,23,03,48,3.10
2012,01,23,03,49,2.30
2012,01,23,03,50,1.90
2012,01,23,03,51,3.90
2012,01,23,03,52,3.90
2012,01,23,03,53,1.00
2012,01,23,03,54,0.20
2012,01,23,03,55,3.40
2012,01,23,03,56,3.20
2012,01,23,03,57,2.00
2012,01,23,03,58,1.60
2012,01,23,03,59,0.20
2012,01,23,04,00,0.10
2012,01,23,04,01,0.00
2012,01,23,04,02,0.10
2012,01,23,04,03,2.30
2012,01,23,04,04,0.50
2012,01,23,04,05,0.60
2012,01,23,04,06,0.20
2012,01,23,04,07,2.60
2012,01,23,04,08,0.50
2012,01,23,04,09,0.00
2012,01,23,04,10,0.00
2012,01,23,04,11,0.10
2012,01,23,04,12,1.30
2012,01,23,04,13,1.70
2012,01,23,04,14,1.10
2012,01,23,04,15,4.30
2012,01,23,04,16,1.00
2012,01,23,04,17,0.90
2012,01,23,04,18,1.10
2012,01,23,04,19,0.60
2012,01,23,04,20,3.10
2012,01,23,04,21,1.40
2012,01,23,04,22,0.20
2012,01,23,04,23,0.10
2012,01,23,04,24,1.10
2012,01,23,04,25,0.20
2012,01,23,04,26,1.40
2012,01,23,04,27,0.00
2012,01,23,04,28,0.00
2012,01,23,04,29,0.10
2012,01,23,04,30,0.00
2012,01,23,04,31,0.00
2012,01,23,04,32,0.00
2012,01,23,04,33,0.00
2012,01,23,04,34,0.00
2012,01,23,04,35,0.10
2012,01,23,04,36,0.90
2012,01,23,04,37,0.00
2012,01,23,04,38,0.00
2012,01,23,04,39,0.00
2012,01,23,04,40,0.00
2012,01,23,04,41,0.00
2012,01,23,04,42,0.00
2012,01,23,04,43,0.00
2012,01,23,04,44,0.10
2012,01,23,04,45,0.20
2012,01,23,04,46,0.70
2012,01,23,04,47,0.30
2012,01,23,04,48,0.00
2012,01,23,04,49,0.00
2012,01,23,04,50,1.40
2012,01,23,04,51,1.20
2012,01,23,04,52,0.40
2012,01,23,04,53,0.00
2012,01,23,04,54,0.10
2012,01,23,04,55,0.00
2012,01,23,04,56,0.60
2012,01,23,04,57,0.00
2012,01,23,04,58,1.40
2012,01,23,04,59,0.90
2012,01,23,05,00,2.20
2012,01,23,05,01,2.40
2012,01,23,05,02,3.30
2012,01,23,05,03,2.30
2012,01,23,05,04,3.20
2012,01,23,05,05,3.90
2012,01,23,05,06,2.00
2012,01,23,05,07,0.30
2012,01,23,05,08,2.10
2012,01,23,05,09,0.30
2012,01,23,05,10,0.60
2012,01,23,05,11,0.10
2012,01,23,05,12,1.10
2012,01,23,05,13,2.70
2012,01,23,05,14,3.00
2012,01,23,05,15,3.10
2012,01,23,05,16,5.00
2012,01,23,05,17,7.40
2012,01,23,05,18,6.50
2012,01,23,05,19,5.70
2012,01,23,05,20,4.20
2012,01,23,05,21,3.40
2012,01,23,05,22,6.00
2012,01,23,05,23,4.50
2012,01,23,05,24,2.60
2012,01,23,05,25,3.30
2012,01,23,05,26,2.30
2012,01,23,05,27,2.60
2012,01,23,05,28,3.10
2012,01,23,05,29,1.60
2012,01,23,05,30,4.80
2012,01,23,05,31,4.20
2012,01,23,05,32,5.10
2012,01,23,05,33,4.40
2012,01,23,05,34,2.10
2012,01,23,05,35,2.60
2012,01,23,05,36,3.90
2012,01,23,05,37,4.20
2012,01,23,05,38,3.20
2012,01,23,05,39,3.50
2012,01,23,05,40,4.30
2012,01,23,05,41,4.50
2012,01,23,05,42,3.30
2012,01,23,05,43,2.90
2012,01,23,05,44,4.10
2012,01,23,05,45,1.90
2012,01,23,05,46,3.40
2012,01,23,05,47,3.30
2012,01,23,05,48,0.20
2012,01,23,05,49,2.80
2012,01,23,05,50,1.30
2012,01,23,05,51,2.40
2012,01,23,05,52,0.80
2012,01,23,05,53,1.60
2012,01,23,05,54,0.00
2012,01,23,05,55,0.00
2012,01,23,05,56,0.00
2012,01,23,05,57,0.00
2012,01,23,05,58,0.00
2012,01,23,05,59,0.00
2012,01,23,06,00,0.00
2012,01,23,06,01,0.20
2012,01,23,06,02,0.00
2012,01,23,06,03,0.00
2012,01,23,06,04,0.00
2012,01,23,06,05,0.00
2012,01,23,06,06,0.00
2012,01,23,06,07,0.00
2012,01,23,06,08,0.00
2012,01,23,06,09,0.00
2012,01,23,06,10,0.10
2012,01,23,06,11,2.60
2012,01,23,06,12,2.30
2012,01,23,06,13,1.90
2012,01,23,06,14,0.00
2012,01,23,06,15,1.40
2012,01,23,06,16,0.60
2012,01,23,06,17,0.20
2012,01,23,06,18,4.70
2012,01,23,06,19,4.90
2012,01,23,06,20,8.20
2012,01,23,06,21,10.00
2012,01,23,06,22,6.60
2012,01,23,06,23,4.40
2012,01,23,06,24,0.00
2012,01,23,06,25,0.00
2012,01,23,06,26,3.50
2012,01,23,06,27,4.10
2012,01,23,06,28,3.90
2012,01,23,06,29,0.40
2012,01,23,06,30,0.80
2012,01,23,06,31,0.00
2012,01,23,06,32,0.00
2012,01,23,06,33,0.00
2012,01,23,06,34,0.00
2012,01,23,06,35,0.10
2012,01,23,06,36,0.00
2012,01,23,06,37,0.10
2012,01,23,06,38,0.00
2012,01,23,06,39,0.00
2012,01,23,06,40,0.00
2012,01,23,06,41,1.10
2012,01,23,06,42,3.70
2012,01,23,06,43,1.40
2012,01,23,06,44,2.60
2012,01,23,06,45,0.90
2012,01,23,06,46,1.20
2012,01,23,06,47,2.50
2012,01,23,06,48,1.10
2012,01,23,06,49,0.10
2012,01,23,06,50,0.60
2012,01,23,06,51,0.80
2012,01,23,06,52,3.20
2012,01,23,06,53,1.90
2012,01,23,06,54,1.00
2012,01,23,06,55,0.60
2012,01,23,06,56,1.00
2012,01,23,06,57,0.70
2012,01,23,06,58,3.70
2012,01,23,06,59,0.50
2012,01,23,07,00,2.70
2012,01,23,07,01,2.40
2012,01,23,07,02,0.20
2012,01,23,07,03,3.80
2012,01,23,07,04,1.80
2012,01,23,07,05,0.40
2012,01,23,07,06,1.80
2012,01,23,07,07,2.60
2012,01,23,07,08,2.10
2012,01,23,07,09,4.60
2012,01,23,07,10,7.00
2012,01,23,07,11,3.10
2012,01,23,07,12,0.60
2012,01,23,07,13,1.90
2012,01,23,07,14,5.50
2012,01,23,07,15,7.60
2012,01,23,07,16,6.50
2012,01,23,07,17,3.10
2012,01,23,07,18,0.90
2012,01,23,07,19,1.80
2012,01,23,07,20,0.30
2012,01,23,07,21,0.30
2012,01,23,07,22,1.20
2012,01,23,07,23,1.40
2012,01,23,07,24,0.50
2012,01,23,07,25,0.20
2012,01,23,07,26,1.50
2012,01,23,07,27,5.10
2012,01,23,07,28,4.80
2012,01,23,07,29,1.50
2012,01,23,07,30,0.70
2012,01,23,07,31,4.80
2012,01,23,07,32,1.00
2012,01,23,07,33,0.30
2012,01,23,07,34,0.00
2012,01,23,07,35,0.10
2012,01,23,07,36,0.00
2012,01,23,07,37,0.00
2012,01,23,07,38,0.00
2012,01,23,07,39,0.00
2012,01,23,07,40,0.00
2012,01,23,07,41,0.00
2012,01,23,07,42,0.00
2012,01,23,07,43,0.00
2012,01,23,07,44,0.00
2012,01,23,07,45,0.10
2012,01,23,07,46,0.10
2012,01,23,07,47,0.00
2012,01,23,07,48,0.30
2012,01,23,07,49,0.00
2012,01,23,07,50,0.00
2012,01,23,07,51,0.10
2012,01,23,07,52,2.30
2012,01,23,07,53,4.30
2012,01,23,07,54,5.10
2012,01,23,07,55,5.00
2012,01,23,07,56,3.10
2012,01,23,07,57,3.90
2012,01,23,07,58,3.70
2012,01,23,07,59,4.90
2012,01,23,08,00,5.20
2012,01,23,08,01,4.60
2012,01,23,08,02,3.60
2012,01,23,08,03,1.90
2012,01,23,08,04,0.20
2012,01,23,08,05,1.90
2012,01,23,08,06,3.40
2012,01,23,08,07,1.10
2012,01,23,08,08,0.00
2012,01,23,08,09,0.00
2012,01,23,08,10,0.00
2012,01,23,08,11,0.00
2012,01,23,08,12,0.00
2012,01,23,08,13,0.00
2012,01,23,08,14,1.30
2012,01,23,08,15,2.10
2012,01,23,08,16,1.70
2012,01,23,08,17,1.40
2012,01,23,08,18,0.90
2012,01,23,08,19,0.00
2012,01,23,08,20,0.70
2012,01,23,08,21,0.00
2012,01,23,08,22,0.00
2012,01,23,08,23,0.00
2012,01,23,08,24,0.50
2012,01,23,08,25,3.10
2012,01,23,08,26,4.60
2012,01,23,08,27,4.10
2012,01,23,08,28,3.20
2012,01,23,08,29,2.50
2012,01,23,08,30,6.80
2012,01,23,08,31,5.30
2012,01,23,08,32,6.70
2012,01,23,08,33,7.40
2012,01,23,08,34,9.60
2012,01,23,08,35,9.50
2012,01,23,08,36,8.40
2012,01,23,08,37,4.20
2012,01,23,08,38,9.70
2012,01,23,08,39,5.20
2012,01,23,08,40,2.20
2012,01,23,08,41,3.60
2012,01,23,08,42,0.80
2012,01,23,08,43,0.10
2012,01,23,08,44,0.40
2012,01,23,08,45,1.90
2012,01,23,08,46,3.50
2012,01,23,08,47,0.10
2012,01,23,08,48,0.00
2012,01,23,08,49,0.00
2012,01,23,08,50,0.10
2012,01,23,08,51,0.00
2012,01,23,08,52,1.20
2012,01,23,08,53,5.40
2012,01,23,08,54,7.80
2012,01,23,08,55,6.90
2012,01,23,08,56,1.50
2012,01,23,08,57,2.30
2012,01,23,08,58,5.80
2012,01,23,08,59,1.80
2012,01,23,09,00,0.60
2012,01,23,09,01,0.00
2012,01,23,09,02,3.20
2012,01,23,09,03,7.60
2012,01,23,09,04,4.90
2012,01,23,09,05,5.10
2012,01,23,09,06,5.10
2012,01,23,09,07,5.20
2012,01,23,09,08,9.90
2012,01,23,09,09,13.70
2012,01,23,09,10,9.20
2012,01,23,09,11,11.90
2012,01,23,09,12,4.70
2012,01,23,09,13,10.90
2012,01,23,09,14,13.50
2012,01,23,09,15,17.90
2012,01,23,09,16,20.40
2012,01,23,09,17,16.20
2012,01,23,09,18,9.10
2012,01,23,09,19,8.90
2012,01,23,09,20,9.60
2012,01,23,09,21,7.20
2012,01,23,09,22,7.40
2012,01,23,09,23,13.20
2012,01,23,09,24,9.30
2012,01,23,09,25,14.90
2012,01,23,09,26,12.10
2012,01,23,09,27,8.50
2012,01,23,09,28,12.70
2012,01,23,09,29,11.70
2012,01,23,09,30,7.30
2012,01,23,09,31,10.20
2012,01,23,09,32,12.90
2012,01,23,09,33,11.60
2012,01,23,09,34,14.80
2012,01,23,09,35,12.00
2012,01,23,09,36,11.80
2012,01,23,09,37,10.90
2012,01,23,09,38,6.80
2012,01,23,09,39,10.40
2012,01,23,09,40,8.50
2012,01,23,09,41,9.40
2012,01,23,09,42,14.20
2012,01,23,09,43,18.00
2012,01,23,09,44,13.90
2012,01,23,09,45,8.50
2012,01,23,09,46,13.20
2012,01,23,09,47,10.00
2012,01,23,09,48,11.30
2012,01,23,09,49,13.80
2012,01,23,09,50,6.80
2012,01,23,09,51,8.90
2012,01,23,09,52,8.40
2012,01,23,09,53,9.60
2012,01,23,09,54,7.50
2012,01,23,09,55,7.00
2012,01,23,09,56,6.00
2012,01,23,09,57,6.30
2012,01,23,09,58,12.50
2012,01,23,09,59,10.50
2012,01,23,10,00,11.50
2012,01,23,10,01,16.80
2012,01,23,10,02,13.90
2012,01,23,10,03,8.40
2012,01,23,10,04,14.10
2012,01,23,10,05,12.70
2012,01,23,10,06,16.70
2012,01,23,10,07,10.00
2012,01,23,10,08,9.00
2012,01,23,10,09,14.70
2012,01,23,10,10,10.90
2012,01,23,10,11,6.80
2012,01,23,10,12,11.30
2012,01,23,10,13,11.90
2012,01,23,10,14,12.90
2012,01,23,10,15,8.10
2012,01,23,10,16,8.20
2012,01,23,10,17,9.20
2012,01,23,10,18,6.30
2012,01,23,10,19,9.10
2012,01,23,10,20,11.20
2012,01,23,10,21,5.70
2012,01,23,10,22,5.00
2012,01,23,10,23,9.30
2012,01,23,10,24,5.70
2012,01,23,10,25,8.10
2012,01,23,10,26,7.60
2012,01,23,10,27,9.60
2012,01,23,10,28,8.70
2012,01,23,10,29,13.60
2012,01,23,10,30,7.70
2012,01,23,10,31,11.00
2012,01,23,10,32,12.10
2012,01,23,10,33,6.70
2012,01,23,10,34,8.00
2012,01,23,10,35,7.60
2012,01,23,10,36,5.60
2012,01,23,10,37,10.60
2012,01,23,10,38,14.70
2012,01,23,10,39,7.60
2012,01,23,10,40,10.90
2012,01,23,10,41,12.80
2012,01,23,10,42,10.80
2012,01,23,10,43,13.00
2012,01,23,10,44,6.70
2012,01,23,10,45,7.10
2012,01,23,10,46,6.80
2012,01,23,10,47,4.90
2012,01,23,10,48,4.80
2012,01,23,10,49,3.30
2012,01,23,10,50,3.90
2012,01,23,10,51,2.30
2012,01,23,10,52,1.00
2012,01,23,10,53,4.50
2012,01,23,10,54,4.10
2012,01,23,10,55,1.50
2012,01,23,10,56,8.80
2012,01,23,10,57,7.30
2012,01,23,10,58,6.40
2012,01,23,10,59,2.60
2012,01,23,11,00,3.50
2012,01,23,11,01,4.20
2012,01,23,11,02,2.00
2012,01,23,11,03,0.80
2012,01,23,11,04,2.10
2012,01,23,11,05,3.50
2012,01,23,11,06,5.60
2012,01,23,11,07,5.40
2012,01,23,11,08,3.60
2012,01,23,11,09,4.10
2012,01,23,11,10,2.30
2012,01,23,11,11,5.10
2012,01,23,11,12,8.60
2012,01,23,11,13,9.60
2012,01,23,11,14,7.10
2012,01,23,11,15,9.60
2012,01,23,11,16,6.60
2012,01,23,11,17,6.90
2012,01,23,11,18,5.80
2012,01,23,11,19,7.80
2012,01,23,11,20,6.00
2012,01,23,11,21,3.80
2012,01,23,11,22,5.30
2012,01,23,11,23,8.90
2012,01,23,11,24,9.80
2012,01,23,11,25,6.40
2012,01,23,11,26,3.50
2012,01,23,11,27,10.10
2012,01,23,11,28,5.20
2012,01,23,11,29,5.20
2012,01,23,11,30,10.10
2012,01,23,11,31,7.70
2012,01,23,11,32,10.70
2012,01,23,11,33,12.60
2012,01,23,11,34,8.50
2012,01,23,11,35,5.90
2012,01,23,11,36,4.70
2012,01,23,11,37,7.10
2012,01,23,11,38,9.70
2012,01,23,11,39,6.80
2012,01,23,11,40,6.80
2012,01,23,11,41,9.70
2012,01,23,11,42,9.50
2012,01,23,11,43,5.90
2012,01,23,11,44,4.70
2012,01,23,11,45,3.70
2012,01,23,11,46,6.50
2012,01,23,11,47,4.20
2012,01,23,11,48,2.20
2012,01,23,11,49,2.50
2012,01,23,11,50,5.60
2012,01,23,11,51,6.70
2012,01,23,11,52,5.30
2012,01,23,11,53,8.10
2012,01,23,11,54,10.70
2012,01,23,11,55,6.90
2012,01,23,11,56,5.20
2012,01,23,11,57,7.40
2012,01,23,11,58,5.50
2012,01,23,11,59,4.70
2012,01,23,12,00,7.00
2012,01,23,12,01,10.50
2012,01,23,12,02,12.50
2012,01,23,12,03,12.50
2012,01,23,12,04,16.60
2012,01,23,12,05,9.80
2012,01,23,12,06,8.70
2012,01,23,12,07,9.70
2012,01,23,12,08,6.20
2012,01,23,12,09,5.60
2012,01,23,12,10,6.30
2012,01,23,12,11,8.90
2012,01,23,12,12,4.30
2012,01,23,12,13,6.40
2012,01,23,12,14,5.90
2012,01,23,12,15,5.90
2012,01,23,12,16,3.90
2012,01,23,12,17,7.90
2012,01,23,12,18,4.00
2012,01,23,12,19,3.20
2012,01,23,12,20,5.20
2012,01,23,12,21,4.50
2012,01,23,12,22,3.60
2012,01,23,12,23,6.40
2012,01,23,12,24,5.60
2012,01,23,12,25,6.80
2012,01,23,12,26,9.40
2012,01,23,12,27,14.90
2012,01,23,12,28,15.90
2012,01,23,12,29,10.10
2012,01,23,12,30,14.90
2012,01,23,12,31,10.60
2012,01,23,12,32,6.90
2012,01,23,12,33,5.60
2012,01,23,12,34,5.40
2012,01,23,12,35,5.20
2012,01,23,12,36,5.10
2012,01,23,12,37,4.70
2012,01,23,12,38,3.40
2012,01,23,12,39,3.80
2012,01,23,12,40,4.60
2012,01,23,12,41,4.00
2012,01,23,12,42,2.70
2012,01,23,12,43,3.10
2012,01,23,12,44,4.10
2012,01,23,12,45,6.90
2012,01,23,12,46,7.60
2012,01,23,12,47,5.20
2012,01,23,12,48,1.80
2012,01,23,12,49,9.30
2012,01,23,12,50,11.70
2012,01,23,12,51,10.90
2012,01,23,12,52,9.90
2012,01,23,12,53,5.50
2012,01,23,12,54,11.70
2012,01,23,12,55,7.60
2012,01,23,12,56,9.30
2012,01,23,12,57,10.10
2012,01,23,12,58,16.30
2012,01,23,12,59,13.60
2012,01,23,13,00,10.00
2012,01,23,13,01,12.00
2012,01,23,13,02,12.90
2012,01,23,13,03,15.90
2012,01,23,13,04,16.30
2012,01,23,13,05,11.80
2012,01,23,13,06,10.60
2012,01,23,13,07,10.30
2012,01,23,13,08,12.60
2012,01,23,13,09,10.90
2012,01,23,13,10,4.90
2012,01,23,13,11,9.00
2012,01,23,13,12,8.00
2012,01,23,13,13,7.30
2012,01,23,13,14,8.50
2012,01,23,13,15,8.00
2012,01,23,13,16,7.00
2012,01,23,13,17,4.90
2012,01,23,13,18,5.60
2012,01,23,13,19,5.50
2012,01,23,13,20,4.30
2012,01,23,13,21,8.90
2012,01,23,13,22,9.70
2012,01,23,13,23,11.00
2012,01,23,13,24,8.30
2012,01,23,13,25,5.20
2012,01,23,13,26,2.40
2012,01,23,13,27,5.60
2012,01,23,13,28,4.50
2012,01,23,13,29,8.10
2012,01,23,13,30,7.90
2012,01,23,13,31,8.00
2012,01,23,13,32,5.10
2012,01,23,13,33,5.40
2012,01,23,13,34,10.90
2012,01,23,13,35,13.40
2012,01,23,13,36,13.50
2012,01,23,13,37,9.50
2012,01,23,13,38,5.90
2012,01,23,13,39,8.00
2012,01,23,13,40,6.40
2012,01,23,13,41,7.70
2012,01,23,13,42,6.00
2012,01,23,13,43,10.70
2012,01,23,13,44,9.30
2012,01,23,13,45,6.70
2012,01,23,13,46,7.90
2012,01,23,13,47,9.40
2012,01,23,13,48,17.10
2012,01,23,13,49,13.60
2012,01,23,13,50,12.20
2012,01,23,13,51,12.00
2012,01,23,13,52,10.20
2012,01,23,13,53,7.00
2012,01,23,13,54,8.60
2012,01,23,13,55,7.70
2012,01,23,13,56,10.20
2012,01,23,13,57,10.00
2012,01,23,13,58,13.00
2012,01,23,13,59,13.40
2012,01,23,14,00,10.00
2012,01,23,14,01,10.20
2012,01,23,14,02,9.20
2012,01,23,14,03,10.90
2012,01,23,14,04,9.90
2012,01,23,14,05,9.30
2012,01,23,14,06,11.20
2012,01,23,14,07,12.20
2012,01,23,14,08,9.90
2012,01,23,14,09,13.80
2012,01,23,14,10,13.10
2012,01,23,14,11,12.90
2012,01,23,14,12,11.70
2012,01,23,14,13,16.40
2012,01,23,14,14,14.60
2012,01,23,14,15,14.20
2012,01,23,14,16,14.40
2012,01,23,14,17,17.70
2012,01,23,14,18,17.00
2012,01,23,14,19,12.40
2012,01,23,14,20,12.80
2012,01,23,14,21,8.50
2012,01,23,14,22,14.60
2012,01,23,14,23,14.90
2012,01,23,14,24,15.30
2012,01,23,14,25,13.00
2012,01,23,14,26,11.90
2012,01,23,14,27,17.10
2012,01,23,14,28,17.80
2012,01,23,14,29,12.50
2012,01,23,14,30,12.80
2012,01,23,14,31,11.20
2012,01,23,14,32,17.80
2012,01,23,14,33,19.20
2012,01,23,14,34,16.70
2012,01,23,14,35,18.00
2012,01,23,14,36,14.50
2012,01,23,14,37,14.30
2012,01,23,14,38,15.40
2012,01,23,14,39,18.30
2012,01,23,14,40,16.00
2012,01,23,14,41,18.00
2012,01,23,14,42,18.70
2012,01,23,14,43,16.50
2012,01,23,14,44,10.10
2012,01,23,14,45,14.70
2012,01,23,14,46,15.50
2012,01,23,14,47,12.20
2012,01,23,14,48,13.70
2012,01,23,14,49,11.60
2012,01,23,14,50,16.70
2012,01,23,14,51,20.20
2012,01,23,14,52,22.80
2012,01,23,14,53,21.70
2012,01,23,14,54,15.90
2012,01,23,14,55,10.60
2012,01,23,14,56,11.40
2012,01,23,14,57,13.80
2012,01,23,14,58,19.50
2012,01,23,14,59,14.90
2012,01,23,15,00,17.50
2012,01,23,15,01,18.80
2012,01,23,15,02,16.00
2012,01,23,15,03,17.70
2012,01,23,15,04,18.20
2012,01,23,15,05,12.60
2012,01,23,15,06,14.10
2012,01,23,15,07,15.70
2012,01,23,15,08,15.70
2012,01,23,15,09,14.40
2012,01,23,15,10,17.50
2012,01,23,15,11,13.40
2012,01,23,15,12,11.20
2012,01,23,15,13,12.20
2012,01,23,15,14,15.10
2012,01,23,15,15,14.40
2012,01,23,15,16,15.70
2012,01,23,15,17,15.70
2012,01,23,15,18,12.90
2012,01,23,15,19,17.00
2012,01,23,15,20,12.20
2012,01,23,15,21,8.90
2012,01,23,15,22,9.60
2012,01,23,15,23,13.00
2012,01,23,15,24,9.40
2012,01,23,15,25,6.40
2012,01,23,15,26,4.00
2012,01,23,15,27,0.70
2012,01,23,15,28,1.10
2012,01,23,15,29,3.70
2012,01,23,15,30,7.10
2012,01,23,15,31,0.20
2012,01,23,15,32,3.10
2012,01,23,15,33,6.10
2012,01,23,15,34,2.60
2012,01,23,15,35,0.20
2012,01,23,15,36,6.10
2012,01,23,15,37,8.10
2012,01,23,15,38,6.60
2012,01,23,15,39,1.90
2012,01,23,15,40,4.00
2012,01,23,15,41,6.60
2012,01,23,15,42,5.10
2012,01,23,15,43,8.80
2012,01,23,15,44,8.90
2012,01,23,15,45,6.80
2012,01,23,15,46,5.70
2012,01,23,15,47,8.50
2012,01,23,15,48,4.10
2012,01,23,15,49,0.40
2012,01,23,15,50,6.10
2012,01,23,15,51,4.30
2012,01,23,15,52,1.30
2012,01,23,15,53,3.10
2012,01,23,15,54,2.30
2012,01,23,15,55,3.20
2012,01,23,15,56,3.80
2012,01,23,15,57,7.10
2012,01,23,15,58,9.30
2012,01,23,15,59,10.10
2012,01,23,16,00,7.40
2012,01,23,16,01,7.00
2012,01,23,16,02,5.20
2012,01,23,16,03,9.10
2012,01,23,16,04,8.60
2012,01,23,16,05,10.20
2012,01,23,16,06,8.90
2012,01,23,16,07,6.80
2012,01,23,16,08,6.40
2012,01,23,16,09,4.20
2012,01,23,16,10,5.90
2012,01,23,16,11,5.90
2012,01,23,16,12,2.10
2012,01,23,16,13,3.00
2012,01,23,16,14,7.30
2012,01,23,16,15,10.90
2012,01,23,16,16,11.30
2012,01,23,16,17,8.90
2012,01,23,16,18,10.10
2012,01,23,16,19,8.40
2012,01,23,16,20,6.90
2012,01,23,16,21,4.80
2012,01,23,16,22,6.40
2012,01,23,16,23,7.70
2012,01,23,16,24,5.20
2012,01,23,16,25,5.30
2012,01,23,16,26,6.60
2012,01,23,16,27,5.40
2012,01,23,16,28,4.30
2012,01,23,16,29,4.60
2012,01,23,16,30,7.40
2012,01,23,16,31,6.40
2012,01,23,16,32,5.60
2012,01,23,16,33,7.20
2012,01,23,16,34,8.00
2012,01,23,16,35,8.40
2012,01,23,16,36,5.50
2012,01,23,16,37,4.20
2012,01,23,16,38,6.80
2012,01,23,16,39,6.00
2012,01,23,16,40,5.30
2012,01,23,16,41,6.50
2012,01,23,16,42,6.10
2012,01,23,16,43,5.60
2012,01,23,16,44,6.30
2012,01,23,16,45,7.30
2012,01,23,16,46,7.70
2012,01,23,16,47,5.60
2012,01,23,16,48,5.40
2012,01,23,16,49,5.10
2012,01,23,16,50,6.80
2012,01,23,16,51,6.10
2012,01,23,16,52,7.10
2012,01,23,16,53,6.10
2012,01,23,16,54,7.00
2012,01,23,16,55,7.70
2012,01,23,16,56,10.50
2012,01,23,16,57,6.00
2012,01,23,16,58,5.50
2012,01,23,16,59,7.70
2012,01,23,17,00,6.70
2012,01,23,17,01,5.80
2012,01,23,17,02,4.80
2012,01,23,17,03,3.50
2012,01,23,17,04,4.70
2012,01,23,17,05,4.30
2012,01,23,17,06,5.00
2012,01,23,17,07,4.20
2012,01,23,17,08,6.90
2012,01,23,17,09,6.00
2012,01,23,17,10,9.60
2012,01,23,17,11,7.00
2012,01,23,17,12,6.40
2012,01,23,17,13,4.00
2012,01,23,17,14,4.20
2012,01,23,17,15,4.40
2012,01,23,17,16,7.40
2012,01,23,17,17,5.10
2012,01,23,17,18,5.10
2012,01,23,17,19,6.60
2012,01,23,17,20,3.50
2012,01,23,17,21,1.40
2012,01,23,17,22,2.10
2012,01,23,17,23,3.70
2012,01,23,17,24,1.90
2012,01,23,17,25,4.40
2012,01,23,17,26,6.20
2012,01,23,17,27,6.90
2012,01,23,17,28,7.00
2012,01,23,17,29,5.80
2012,01,23,17,30,4.70
2012,01,23,17,31,4.20
2012,01,23,17,32,3.20
2012,01,23,17,33,3.80
2012,01,23,17,34,3.50
2012,01,23,17,35,3.80
2012,01,23,17,36,3.70
2012,01,23,17,37,3.20
2012,01,23,17,38,0.30
2012,01,23,17,39,0.00
2012,01,23,17,40,0.00
2012,01,23,17,41,0.20
2012,01,23,17,42,0.00
2012,01,23,17,43,0.00
2012,01,23,17,44,0.80
2012,01,23,17,45,0.00
2012,01,23,17,46,0.20
2012,01,23,17,47,0.20
2012,01,23,17,48,0.00
2012,01,23,17,49,0.10
2012,01,23,17,50,0.00
2012,01,23,17,51,1.20
2012,01,23,17,52,0.00
2012,01,23,17,53,0.10
2012,01,23,17,54,0.00
2012,01,23,17,55,0.00